[[{"header":{"parameterUnit":"m.s-1","parameterCategory":1,"la1":30.2991,"la2":30.254,"lo1":-89.0895,"lo2":-89.0444,"dy":0.0017,"dx":0.0017,"nx":28,"ny":28,"refTime":"2024-02-14T09:00:00:Z","depth":0,"parameterNumber":2,"parameterNumberName":"U-component_of_WINDS"},"data":[0,0,0,0,0,0,0,0,0,0,0,0,0,0,0,0,0,0,0,0,0,0,0,0,0,0,0,0,0,0,0,0,0,0,0,0,0,0,0,0,0,0,0,0,0,0,0,0,0,0,0,0,0,0,0,0,0,0,-1.7528,-1.7528,0,-1.7569,-1.757,-1.757,-1.7532,-1.753,-1.7529,-1.7527,-1.757,-1.7573,-1.7575,0,0,0,0,0,0,0,0,0,0,0,0,0,-1.7416,-1.7419,-1.7528,-1.7528,-1.7529,-1.7569,-1.757,-1.757,-1.7532,-1.753,-1.7529,-1.7527,-1.7569,-1.7572,-1.7576,0,0,0,0,0,0,0,0,0,0,0,0,0,-1.7462,-1.7419,-1.7528,-1.7515,-1.7514,-1.7569,-1.757,-1.757,-1.7533,-1.753,-1.7528,-1.7526,-1.7568,-1.7572,-1.7576,-1.7646,0,0,-1.7588,-1.7589,0,0,0,0,0,0,0,0,-1.746,-1.7466,-1.7516,-1.7516,-1.7515,-1.7543,-1.7546,-1.7596,-1.7533,-1.7526,-1.7527,-1.7525,-1.7563,-1.7567,-1.758,-1.7648,-1.765,-1.7588,-1.759,-1.7592,-1.7593,0,0,0,0,0,0,0,-1.7456,-1.7464,-1.7544,-1.7517,-1.7516,-1.7507,-1.7511,-1.7555,-1.7557,-1.7526,-1.7523,-1.7529,-1.7562,-1.7576,-1.7581,-1.765,-1.7588,-1.7591,-1.7594,-1.7595,-1.7778,-1.778,0,0,0,0,0,0,-1.7455,-1.7462,-1.7543,-1.7545,-1.7481,-1.7511,-1.7515,-1.7536,-1.7556,-1.7557,-1.7531,-1.7527,-1.7571,-1.7576,-1.7582,-1.7665,-1.7592,-1.7596,-1.7598,-1.7776,-1.7779,-1.7781,0,0,0,0,0,0,-1.7452,-1.7462,-1.7541,-1.7503,-1.7512,-1.7515,-1.7539,-1.7538,-1.7552,-1.756,-1.756,-1.7545,-1.7569,-1.7577,-1.763,-1.7666,-1.7597,-1.7601,-1.7773,-1.7776,-1.778,-1.7832,0,0,0,0,0,0,-1.7449,-1.7462,-1.7488,-1.7504,-1.7514,-1.7589,-1.7541,-1.7541,-1.7559,-1.7554,-1.7573,-1.7574,-1.7568,-1.7625,-1.7634,-1.767,-1.7604,-1.7769,-1.7774,-1.7779,-1.7827,-1.7837,-1.7846,0,0,0,0,0,-1.7445,-1.7501,-1.7489,-1.7499,-1.7547,-1.7591,-1.7597,-1.7589,-1.7562,-1.7589,-1.7594,-1.7573,-1.7661,-1.7631,-1.7641,-1.7679,-1.7767,-1.7773,-1.7778,-1.7823,-1.7835,-1.7846,0,0,0,0,0,0,-1.7489,-1.7503,-1.749,-1.7552,-1.7571,-1.7584,-1.7617,-1.7602,-1.7628,-1.7623,-1.7612,-1.7617,-1.7674,-1.7682,-1.7648,-1.7748,-1.771,-1.7718,-1.774,-1.7752,-1.7761,-1.7757,-1.7607,0,0,0,0,0,-1.7506,-1.754,-1.755,-1.7604,-1.7614,-1.7614,-1.7633,-1.7625,-1.7644,-1.7651,-1.766,-1.7679,-1.7711,-1.7732,-1.7761,-1.7829,-1.7832,-1.786,-1.7869,-1.7877,-1.7883,-1.7919,-1.7932,-1.78,-1.78,-1.78,0,0,-1.7542,-1.7553,-1.7575,-1.7613,-1.7627,-1.7662,-1.7621,-1.766,-1.7686,-1.7657,-1.7708,-1.7716,-1.7736,-1.7797,-1.7824,-1.7805,-1.7921,-1.7884,-1.789,-1.7893,-1.7927,-1.7939,-1.795,-1.7804,-1.7803,-1.7803,0,0,-1.7624,-1.7636,-1.7682,-1.7697,-1.7717,-1.7717,-1.7728,-1.7744,-1.7748,-1.7799,-1.7778,-1.7809,-1.7864,-1.788,-1.7895,-1.7984,-1.7966,-1.7994,-1.8042,-1.8078,-1.8088,-1.8097,-1.8128,-1.814,-1.8001,-1.8001,-1.8001,0,-1.7665,-1.7717,-1.7708,-1.7749,-1.7766,-1.7742,-1.7789,-1.7803,-1.7833,-1.7845,-1.7824,-1.7893,-1.7905,-1.7969,-1.799,-1.8004,-1.8016,-1.7991,-1.8087,-1.8096,-1.8105,-1.8134,-1.8146,-1.8004,-1.8004,-1.8004,-1.8003,0,-1.7767,-1.7803,-1.7838,-1.7867,-1.7889,-1.7932,-1.793,-1.7953,-1.7944,-1.7947,-1.7999,-1.8013,-1.8045,-1.806,-1.8051,-1.8123,-1.8111,-1.8089,-1.805,-1.812,-1.8148,-1.816,-1.8009,-1.8008,-1.8007,-1.8006,0,0,-1.7877,-1.7901,-1.7913,-1.7926,-1.7948,-1.7976,-1.8019,-1.805,-1.807,-1.8091,-1.8127,-1.8174,-1.8154,-1.8171,-1.8165,-1.8196,-1.8265,-1.817,-1.817,-1.8187,-1.8344,-1.836,-1.8374,-1.8254,-1.8256,-1.8258,-1.8343,0,-1.7959,-1.8033,-1.8027,-1.8097,-1.8131,-1.8108,-1.8146,-1.8163,-1.8167,-1.8196,-1.82,-1.8234,-1.8205,-1.8215,-1.8245,-1.825,-1.8297,-1.8244,-1.8287,-1.8288,-1.8281,-1.8388,-1.8405,-1.8485,-1.8353,-1.8355,-1.8357,0,-1.8065,-1.809,-1.8164,-1.818,-1.8194,-1.8228,-1.8256,-1.8284,-1.8304,-1.8304,-1.8324,-1.8312,-1.8355,-1.8317,-1.8376,-1.8341,-1.8358,-1.8364,-1.8367,-1.837,-1.8326,-1.8394,-1.851,-1.8521,-1.8374,-1.8372,-1.8371,0,-1.8138,-1.819,-1.824,-1.8252,-1.8273,-1.8297,-1.8307,-1.8324,-1.8343,-1.8368,-1.838,-1.841,-1.8427,-1.845,-1.8447,-1.8419,-1.8508,-1.8469,-1.8509,-1.8509,-1.8528,-1.8527,-1.8648,-1.8541,-1.854,-1.854,-1.854,0,-1.823,-1.8276,-1.8273,-1.8304,-1.8355,-1.8347,-1.8398,-1.8405,-1.842,-1.8453,-1.8436,-1.8467,-1.8461,-1.8491,-1.8489,-1.8539,-1.8547,-1.8548,-1.8547,-1.8549,-1.8549,-1.856,-1.8554,-1.8543,-1.8543,-1.8542,-1.8541,0,-1.8319,-1.8319,-1.8373,-1.8388,-1.8393,-1.843,-1.8443,-1.8472,-1.8475,-1.8516,-1.8525,-1.8529,-1.8565,-1.8564,-1.8604,-1.8603,-1.8664,-1.8657,-1.8657,-1.8655,-1.8696,-1.8692,-1.8827,-1.8845,-1.8727,-1.8728,-1.8729,0,-1.8378,-1.8413,-1.8431,-1.8452,-1.8463,-1.8496,-1.8516,-1.851,-1.8531,-1.8556,-1.8583,-1.8616,-1.8643,-1.8701,-1.8708,-1.8738,-1.8731,-1.8777,-1.8736,-1.8737,-1.8732,-1.8729,-1.8733,-1.8785,-1.8786,-1.8787,-1.8788,0,-1.8482,-1.8481,-1.8509,-1.8539,-1.8562,-1.8585,-1.8606,-1.8624,-1.862,-1.8645,-1.8681,-1.8702,-1.8743,-1.8777,-1.8807,-1.8817,-1.8802,-1.8801,-1.8812,-1.8814,-1.8813,-1.8814,-1.8678,-1.8798,-1.8797,-1.8796,-1.8795,-1.8795,-1.8558,-1.8587,-1.8605,-1.8638,-1.8653,-1.8673,-1.8701,-1.8708,-1.8737,-1.877,-1.8765,-1.8805,-1.8824,-1.8863,-1.8876,-1.8907,-1.8891,-1.8907,-1.8911,-1.8915,-1.892,-1.8809,-1.8913,-1.8913,-1.8912,-1.8912,-1.8912,0,-1.8661,-1.8671,-1.8701,-1.8731,-1.8757,-1.8741,-1.8763,-1.8786,-1.8821,-1.884,-1.8867,-1.8908,-1.8941,-1.8951,-1.8983,-1.9006,-1.9,-1.9015,-1.9012,-1.9015,-1.8932,-1.8919,-1.9019,-1.9019,-1.9019,-1.9019,-1.9019,-1.9019,-1.8717,-1.8767,-1.8767,-1.8824,-1.8834,-1.8873,-1.8887,-1.8906,-1.8921,-1.8968,-1.8995,-1.9001,-1.9016,-1.9049,-1.9079,-1.908,-1.9093,-1.911,-1.9109,-1.9032,-1.9021,-1.9011,-1.8998,-1.9113,-1.9113,-1.919,-1.919,-1.9191]},{"header":{"parameterUnit":"m.s-1","parameterCategory":1,"la1":30.2991,"la2":30.254,"lo1":-89.0895,"lo2":-89.0444,"dy":0.0017,"dx":0.0017,"nx":28,"ny":28,"refTime":"2024-02-14T09:00:00:Z","depth":0,"parameterNumber":3,"parameterNumberName":"V-component_of_WINDS"},"data":[0,0,0,0,0,0,0,0,0,0,0,0,0,0,0,0,0,0,0,0,0,0,0,0,0,0,0,0,0,0,0,0,0,0,0,0,0,0,0,0,0,0,0,0,0,0,0,0,0,0,0,0,0,0,0,0,0,0,2.2531,2.2532,0,2.2584,2.2585,2.2586,2.2581,2.258,2.2579,2.2579,2.263,2.2632,2.2634,0,0,0,0,0,0,0,0,0,0,0,0,0,2.2422,2.2424,2.2531,2.2532,2.2533,2.2584,2.2585,2.2586,2.2581,2.258,2.2579,2.2578,2.2629,2.2631,2.2634,0,0,0,0,0,0,0,0,0,0,0,0,0,2.2471,2.2424,2.2531,2.2537,2.2538,2.2584,2.2585,2.2586,2.2581,2.258,2.2579,2.2578,2.2628,2.2631,2.2634,2.2678,0,0,2.2644,2.2645,0,0,0,0,0,0,0,0,2.2468,2.2475,2.2535,2.2536,2.2538,2.2575,2.2565,2.2617,2.2582,2.2565,2.2579,2.2577,2.2612,2.2617,2.2629,2.268,2.2682,2.2644,2.2646,2.2647,2.2648,0,0,0,0,0,0,0,2.2465,2.2473,2.2552,2.2536,2.2538,2.2535,2.2541,2.2575,2.2594,2.2566,2.2566,2.2572,2.2613,2.2626,2.263,2.2683,2.2644,2.2647,2.2649,2.265,2.277,2.2772,0,0,0,0,0,0,2.2461,2.247,2.2551,2.2554,2.25,2.2538,2.2544,2.2564,2.2594,2.2598,2.2573,2.2572,2.2621,2.2627,2.2632,2.2683,2.2647,2.265,2.2652,2.2769,2.2771,2.2772,0,0,0,0,0,0,2.2459,2.2468,2.2548,2.2512,2.2522,2.2541,2.2563,2.2566,2.2579,2.26,2.2603,2.2584,2.2621,2.2628,2.2666,2.2685,2.2652,2.2655,2.2768,2.277,2.2771,2.2788,0,0,0,0,0,0,2.2455,2.2467,2.2485,2.2512,2.2524,2.2583,2.2565,2.2568,2.2585,2.2584,2.261,2.2613,2.262,2.2662,2.2669,2.2689,2.2657,2.2766,2.2769,2.2771,2.2785,2.279,2.2794,0,0,0,0,0,2.2452,2.2487,2.2486,2.2496,2.2547,2.2584,2.2591,2.2599,2.2587,2.2604,2.2617,2.2613,2.2682,2.2666,2.2674,2.2695,2.2765,2.2768,2.2771,2.2784,2.2789,2.2794,0,0,0,0,0,0,2.2461,2.2491,2.249,2.2536,2.2558,2.2583,2.2605,2.2604,2.2629,2.2627,2.2635,2.264,2.2679,2.2691,2.2672,2.2738,2.2722,2.2726,2.2728,2.2734,2.2738,2.2734,2.266,0,0,0,0,0,2.2468,2.2497,2.2522,2.256,2.2571,2.2586,2.2603,2.2607,2.2629,2.2638,2.2654,2.2675,2.2701,2.2718,2.2744,2.2787,2.2792,2.2806,2.281,2.2813,2.2817,2.2839,2.2845,2.2782,2.2782,2.2782,0,0,2.2483,2.2504,2.2521,2.2562,2.2579,2.2608,2.2594,2.2625,2.2645,2.2643,2.268,2.2692,2.2716,2.2757,2.2775,2.2768,2.2836,2.2817,2.282,2.2821,2.2843,2.2849,2.2854,2.2784,2.2783,2.2783,0,0,2.2526,2.2545,2.2578,2.2596,2.2622,2.2632,2.264,2.2666,2.2674,2.2712,2.271,2.2734,2.278,2.2797,2.2811,2.2859,2.2855,2.2867,2.2888,2.2909,2.2914,2.2918,2.2934,2.2939,2.287,2.287,2.287,0,2.2541,2.2585,2.2595,2.2626,2.2643,2.2643,2.2675,2.2691,2.2724,2.2735,2.2727,2.2784,2.2799,2.2843,2.2855,2.2867,2.2875,2.2863,2.2913,2.2917,2.2922,2.2936,2.2942,2.2872,2.2871,2.2871,2.2871,0,2.2602,2.2632,2.2656,2.2689,2.2708,2.274,2.2752,2.2771,2.2773,2.2784,2.2821,2.2841,2.2869,2.288,2.2883,2.2924,2.2918,2.2911,2.2895,2.2929,2.2942,2.2948,2.2873,2.2873,2.2872,2.2872,0,0,2.2651,2.2689,2.2697,2.2711,2.274,2.2763,2.2794,2.2823,2.2838,2.2861,2.2886,2.2924,2.2917,2.2934,2.2938,2.2957,2.2991,2.2947,2.2948,2.2953,2.3036,2.304,2.3047,2.299,2.2991,2.2992,2.3033,0,2.2695,2.2751,2.276,2.2809,2.2836,2.2835,2.2862,2.2882,2.2892,2.2915,2.2926,2.2953,2.2943,2.2952,2.2971,2.2983,2.3008,2.298,2.3011,2.3012,2.3004,2.3054,2.3059,2.3098,2.3039,2.304,2.3041,0,2.2755,2.2779,2.2831,2.2855,2.2867,2.2891,2.2917,2.294,2.2962,2.2968,2.2986,2.2987,2.3017,2.3001,2.3041,2.3022,2.3035,2.3043,2.3045,2.3047,2.3027,2.3056,2.311,2.3115,2.305,2.3049,2.3048,0,2.2783,2.283,2.2866,2.2879,2.2908,2.2925,2.2937,2.2958,2.2975,2.2997,2.3008,2.3033,2.3047,2.3066,2.3074,2.3062,2.3114,2.3098,2.3118,2.3118,2.3128,2.3127,2.3183,2.3139,2.3139,2.3138,2.3138,0,2.2831,2.2862,2.2879,2.2902,2.2936,2.2945,2.2978,2.299,2.3008,2.3031,2.3033,2.3054,2.3064,2.3087,2.3093,2.3124,2.3131,2.3135,2.3136,2.3135,2.3134,2.3142,2.3139,2.314,2.314,2.3139,2.3139,0,2.2869,2.2882,2.2921,2.2946,2.2953,2.2977,2.2997,2.3018,2.3028,2.3057,2.3064,2.308,2.3106,2.3116,2.3149,2.3153,2.3189,2.3188,2.3182,2.3182,2.32,2.3198,2.3263,2.3271,2.3222,2.3223,2.3223,0,2.2898,2.2922,2.2949,2.2965,2.2979,2.3005,2.3022,2.3031,2.3048,2.3074,2.3091,2.3118,2.314,2.3182,2.3195,2.3219,2.3218,2.3239,2.3222,2.3219,2.3217,2.3215,2.3216,2.3242,2.3243,2.3243,2.3243,0,2.2947,2.2952,2.2977,2.3004,2.3024,2.3045,2.3066,2.3079,2.3091,2.311,2.3138,2.3155,2.3187,2.3213,2.3238,2.3249,2.3248,2.3249,2.3255,2.3252,2.3247,2.3248,2.3189,2.3247,2.3247,2.3247,2.3246,2.3246,2.2981,2.3001,2.3023,2.305,2.3067,2.3086,2.3106,2.3119,2.3143,2.3171,2.3175,2.3204,2.3223,2.3256,2.3269,2.3291,2.3285,2.3293,2.3295,2.3297,2.3297,2.3245,2.3295,2.3295,2.3295,2.3295,2.3295,0,2.3029,2.3043,2.3068,2.3097,2.3118,2.3116,2.3138,2.3155,2.3181,2.32,2.3222,2.3252,2.3277,2.3292,2.3316,2.3331,2.3331,2.3337,2.3335,2.3337,2.3302,2.3294,2.3336,2.3336,2.3336,2.3336,2.3336,2.3336,2.3056,2.3091,2.3098,2.314,2.3153,2.3183,2.3195,2.3212,2.3227,2.3262,2.3283,2.3293,2.3309,2.3335,2.3357,2.3361,2.3369,2.3375,2.3378,2.3344,2.334,2.3336,2.3328,2.3377,2.3377,2.3411,2.3412,2.3412]}]]